Wind_Speed
8 8 7 8 8 10 11 11 11 11 11 11 11 11 10 10 10 9 9 9 8 8 8 8 7 7 6 6 5 6 6 5 5 5 5 4 4 4 4 3 3 2 2
8 7 7 8 9 10 10 10 11 11 10 10 10 10 9 9 9 9 9 9 8 8 8 7 7 6 6 5 5 5 5 6 6 5 5 4 3 4 3 3 2 2 2
8 8 8 9 9 10 10 9 9 9 9 9 8 8 8 8 9 9 9 8 8 7 6 6 6 6 5 5 5 4 5 5 5 4 4 3 3 3 3 2 2 2 2
8 8 9 9 9 9 9 8 8 8 8 8 7 7 7 8 8 9 8 8 7 6 6 6 6 5 4 4 4 4 4 3 3 3 3 2 2 2 2 2 2 2 2
7 7 7 8 8 8 8 7 6 7 7 7 7 6 7 7 8 8 7 7 6 6 6 5 6 5 4 4 3 3 3 2 2 2 2 1 1 2 1 1 2 2 2
7 7 7 7 7 7 7 7 6 5 6 6 6 6 6 7 7 7 6 6 5 6 5 5 5 5 4 4 3 2 2 2 2 1 1 1 1 1 1 1 2 1 1
7 7 6 6 7 7 6 6 5 5 5 5 5 5 6 6 6 6 6 6 5 4 4 4 5 4 4 3 3 2 2 2 1 1 1 0 1 1 1 1 1 1 1
6 6 5 5 5 5 6 6 5 5 5 5 5 5 4 5 5 5 5 5 5 4 4 4 4 4 3 2 2 3 2 2 0 0 0 0 0 0 1 0 1 0 1
5 5 4 4 4 4 5 5 5 5 5 5 5 4 4 4 4 4 4 4 4 4 4 4 4 4 3 3 3 3 2 2 1 1 1 1 1 1 1 1 2 1 1
6 5 5 4 4 3 4 4 4 4 4 4 4 4 3 3 3 4 4 3 3 3 3 4 5 5 4 4 3 3 3 2 2 2 2 2 1 2 1 1 2 2 2
5 4 4 4 3 3 3 4 3 4 4 4 4 4 4 3 3 3 3 3 3 3 4 4 4 5 5 5 4 3 3 3 3 3 2 2 2 2 2 2 2 3 3
4 4 3 2 2 2 2 2 3 3 4 4 4 5 5 4 4 3 3 3 4 4 4 5 5 5 6 6 5 4 4 4 3 3 3 3 3 3 3 3 3 3 4
4 3 2 1 2 2 1 2 2 3 4 4 5 5 5 4 4 4 4 4 5 5 5 5 6 6 7 7 6 6 6 5 4 4 5 4 4 4 4 4 4 4 4
4 3 2 1 1 1 0 1 1 3 4 5 5 4 5 5 5 5 5 5 5 6 6 6 7 7 7 7 7 7 7 6 6 5 5 5 6 6 5 5 5 5 4
4 3 2 2 1 1 1 2 2 3 3 4 5 5 5 5 5 6 6 6 6 6 6 6 7 8 8 7 7 8 8 8 8 8 7 7 6 6 6 7 6 6 6
3 3 3 3 3 2 2 2 3 3 4 3 4 5 6 6 6 6 7 7 7 7 6 7 7 8 9 9 8 9 9 9 8 8 8 8 8 7 7 7 7 8 8
2 3 3 3 3 2 3 3 3 4 5 4 4 5 6 6 6 7 6 6 6 7 7 7 8 8 9 10 10 10 10 10 10 9 8 9 9 9 8 8 8 9 9
2 2 3 3 3 3 4 4 4 4 4 4 5 5 6 6 6 6 6 6 7 7 7 8 8 8 10 10 10 11 11 12 12 10 10 10 10 10 10 9 9 9 9
3 3 3 4 4 5 4 4 4 4 4 5 5 6 6 7 7 7 7 8 8 8 8 9 9 9 10 11 11 12 12 12 12 11 11 10 10 11 11 11 10 10 11
4 4 4 4 4 5 5 5 5 4 4 5 5 6 7 7 8 8 8 8 8 8 8 9 9 9 10 10 11 12 13 13 12 13 12 11 11 11 12 12 12 12 12
5 5 5 5 5 5 5 5 5 5 5 5 5 6 7 7 8 8 9 9 8 8 8 8 9 10 10 11 11 12 12 13 13 13 13 12 12 12 13 13 13 13 13
7 6 6 5 5 5 5 5 6 5 5 6 5 6 7 8 9 9 9 9 9 9 9 9 9 9 10 10 10 11 11 12 12 13 13 14 13 14 15 15 15 15 15
7 7 7 6 6 6 6 6 6 6 6 6 6 6 6 8 9 9 9 9 9 10 10 10 10 9 9 10 11 11 12 12 12 12 13 15 15 15 16 17 17 16 16
8 9 9 8 8 7 6 6 7 7 7 7 7 7 7 8 8 8 8 9 9 11 11 11 11 11 11 11 12 13 13 13 13 12 13 14 15 16 17 17 17 17 18
9 10 9 10 9 8 8 7 7 8 8 8 8 9 9 9 9 9 10 10 10 10 11 12 12 12 12 13 13 14 14 15 14 13 13 14 16 17 17 18 18 19 19
10 11 11 10 10 9 9 9 9 9 9 9 9 10 11 11 11 11 11 11 11 11 12 13 13 13 14 14 15 15 15 15 15 14 15 16 17 18 19 19 20 20 20
Wind_Direction
105 104 107 119 121 119 121 122 122 122 122 120 119 119 118 115 115 116 111 116 120 126 131 132 129 128 129 124 120 116 114 109 108 112 111 111 119 118 123 133 140 130 129
101 94 105 125 129 124 123 126 125 125 125 124 122 120 120 121 121 121 114 117 120 125 133 135 131 131 135 132 124 120 119 112 112 110 105 106 115 116 122 131 137 127 129
94 89 100 118 129 124 126 127 127 126 123 123 126 124 125 122 120 119 118 122 124 125 132 135 139 137 136 129 124 123 128 119 119 112 105 105 111 113 117 122 120 115 97
94 91 102 109 117 122 127 128 130 130 126 125 127 125 126 126 124 119 123 129 131 129 130 134 143 143 138 128 124 117 125 131 126 116 119 109 103 104 109 113 120 111 87
96 98 103 104 109 123 131 131 132 136 137 134 133 130 131 135 131 126 128 137 136 135 137 139 140 145 145 136 126 113 114 126 142 125 128 118 107 72 87 122 131 108 78
102 104 104 103 108 121 132 135 135 145 149 147 140 135 135 136 139 140 141 139 138 145 143 146 143 142 146 145 133 123 124 128 142 117 113 96 86 72 63 106 139 114 71
108 107 108 110 113 114 126 131 136 141 147 149 155 146 141 142 143 146 155 151 149 151 165 163 155 150 150 151 142 134 131 139 140 119 86 53 82 78 21 66 81 79 46
115 115 113 118 117 114 126 135 138 148 156 159 156 156 152 153 145 151 158 159 165 170 170 178 180 167 173 173 165 153 171 186 192 161 63 342 31 358 332 293 261 319 337
117 124 122 125 124 127 129 134 138 149 160 163 158 155 157 154 160 162 169 169 168 182 196 209 207 196 189 186 183 183 198 222 245 247 264 280 260 260 274 266 268 273 300
113 122 129 130 136 140 145 151 158 159 171 175 177 178 181 179 176 174 178 182 187 195 208 216 223 216 209 208 209 213 223 239 241 254 261 280 283 256 261 269 269 268 289
113 118 127 134 139 145 155 167 174 170 184 191 197 198 203 197 190 184 181 187 208 224 237 237 232 230 228 223 226 239 240 247 248 248 255 275 287 290 278 280 294 288 289
106 112 126 138 156 157 177 176 172 182 205 212 213 209 211 204 201 198 200 214 230 238 246 255 251 244 233 228 231 240 245 250 255 255 263 271 267 275 271 273 289 293 288
101 110 109 135 172 190 198 195 199 199 204 208 207 205 211 214 220 223 228 238 244 246 249 256 246 243 237 233 232 235 240 243 253 264 272 270 268 273 272 269 270 283 288
88 96 88 87 82 66 152 246 244 224 210 213 217 226 225 227 233 236 244 251 255 253 251 253 247 247 243 239 237 235 239 249 254 260 267 270 274 275 272 270 272 276 282
77 74 49 32 13 355 308 300 281 266 246 241 239 242 238 241 245 243 242 249 251 248 249 241 244 248 246 246 242 243 245 250 255 259 262 267 269 272 271 277 279 269 268
63 58 42 20 2 359 334 315 293 270 263 257 248 247 248 250 246 250 247 246 249 250 255 251 246 249 250 247 246 248 248 252 255 261 263 264 268 272 274 278 277 271 268
45 40 32 15 357 338 335 318 308 285 275 271 263 258 261 264 261 267 264 256 260 262 263 258 255 255 256 253 253 255 257 259 259 262 265 263 271 279 282 282 278 275 275
8 2 6 6 357 336 324 317 310 303 285 272 267 270 272 276 277 278 278 276 274 268 266 265 264 259 263 260 261 261 258 259 262 262 265 267 272 279 282 282 276 272 275
339 329 339 338 333 333 328 320 317 306 292 280 273 276 275 275 278 279 278 276 274 272 265 265 268 269 265 263 265 265 260 261 262 262 267 269 272 278 279 279 274 271 272
331 321 338 341 340 336 335 329 324 322 310 297 286 280 278 282 279 280 284 286 280 278 272 269 269 267 270 270 266 263 261 261 259 262 265 269 270 274 277 276 276 276 274
338 332 328 330 332 331 332 337 330 322 317 308 294 290 286 288 290 286 281 280 283 279 278 276 275 272 270 271 271 269 268 266 264 258 259 266 270 274 278 277 276 275 274
329 329 326 323 322 322 326 329 328 319 313 315 312 304 301 293 290 289 282 277 278 276 276 279 282 279 271 269 270 272 272 269 267 265 265 266 268 270 275 278 278 275 275
326 328 325 319 315 309 314 318 318 318 316 316 316 313 307 307 300 288 282 277 276 275 276 279 281 282 279 274 272 272 275 271 268 271 273 271 271 270 272 275 278 278 276
321 322 324 319 318 316 314 314 314 313 314 310 312 312 310 312 308 301 291 279 278 277 275 276 278 278 281 281 277 277 279 275 273 270 269 272 273 274 275 277 279 279 277
323 321 321 318 316 315 312 308 309 310 312 309 308 311 313 312 309 307 297 287 281 278 276 274 276 279 279 279 278 280 286 282 279 273 270 272 275 276 277 280 282 281 280
319 316 315 314 314 310 305 301 303 306 308 309 308 309 310 309 308 306 300 292 287 285 282 276 277 276 276 277 280 280 283 285 283 278 277 274 275 278 280 282 281 280 281
Height
5895 5894 5893 5893 5893 5894 5895 5895 5896 5896 5897 5897 5897 5897 5898 5898 5898 5899 5899 5900 5900 5901 5901 5902 5903 5903 5903 5903 5903 5903 5903 5904 5904 5904 5904 5904 5904 5904 5904 5904 5904 5904 5904
5895 5893 5891 5892 5894 5895 5896 5897 5897 5898 5898 5898 5898 5898 5899 5899 5899 5900 5900 5901 5901 5902 5902 5903 5903 5904 5904 5904 5904 5904 5904 5904 5905 5905 5905 5905 5905 5905 5905 5905 5905 5904 5904
5897 5894 5891 5892 5895 5896 5897 5898 5898 5899 5899 5899 5899 5899 5900 5900 5900 5901 5901 5902 5902 5902 5903 5903 5904 5904 5905 5905 5905 5905 5905 5905 5905 5905 5906 5905 5905 5905 5905 5905 5905 5905 5905
5898 5897 5895 5896 5897 5898 5899 5899 5899 5899 5900 5900 5900 5900 5901 5901 5901 5901 5902 5902 5903 5903 5904 5904 5904 5905 5905 5905 5905 5906 5906 5906 5906 5906 5906 5906 5906 5906 5906 5906 5905 5905 5905
5900 5899 5899 5899 5899 5899 5900 5900 5900 5900 5901 5901 5901 5901 5901 5901 5902 5902 5902 5903 5903 5904 5904 5905 5905 5905 5906 5906 5906 5906 5906 5906 5906 5906 5906 5906 5906 5906 5906 5906 5906 5905 5905
5901 5901 5900 5901 5900 5900 5901 5901 5901 5901 5901 5902 5902 5901 5901 5902 5903 5903 5903 5903 5904 5904 5905 5905 5906 5906 5906 5906 5906 5906 5907 5907 5907 5907 5906 5906 5906 5906 5906 5906 5906 5906 5906
5902 5902 5902 5902 5902 5902 5901 5902 5902 5902 5902 5902 5902 5902 5902 5903 5903 5903 5903 5904 5904 5905 5905 5906 5906 5906 5906 5907 5907 5907 5907 5907 5907 5907 5907 5906 5906 5906 5906 5906 5906 5906 5906
5903 5903 5903 5903 5903 5902 5902 5902 5903 5903 5903 5903 5903 5903 5903 5903 5904 5904 5904 5904 5904 5905 5906 5906 5906 5906 5907 5907 5907 5907 5907 5907 5907 5907 5907 5907 5906 5906 5906 5906 5906 5906 5906
5904 5904 5904 5904 5903 5903 5903 5903 5903 5903 5903 5903 5903 5904 5904 5904 5904 5904 5904 5904 5905 5905 5905 5906 5906 5906 5906 5906 5907 5907 5907 5907 5907 5907 5907 5907 5907 5907 5906 5906 5906 5906 5905
5905 5905 5904 5904 5904 5903 5903 5903 5903 5903 5903 5903 5904 5904 5904 5904 5904 5904 5904 5904 5905 5905 5905 5905 5906 5906 5906 5906 5907 5907 5907 5907 5907 5907 5907 5907 5906 5906 5906 5906 5906 5906 5905
5906 5905 5905 5904 5904 5904 5904 5903 5903 5903 5903 5904 5904 5904 5904 5904 5904 5904 5904 5904 5905 5905 5905 5905 5905 5905 5905 5906 5906 5906 5907 5907 5907 5907 5907 5907 5906 5906 5906 5906 5906 5906 5905
5907 5906 5906 5905 5905 5904 5904 5903 5903 5903 5903 5903 5904 5904 5904 5904 5904 5904 5904 5904 5904 5904 5904 5903 5903 5904 5904 5905 5905 5906 5906 5906 5906 5906 5906 5906 5906 5906 5905 5905 5905 5905 5905
5907 5907 5906 5906 5905 5904 5904 5903 5903 5903 5903 5903 5903 5903 5904 5904 5904 5904 5904 5903 5903 5903 5903 5902 5901 5902 5903 5904 5904 5905 5905 5905 5905 5905 5906 5905 5905 5905 5905 5905 5905 5904 5904
5908 5908 5907 5906 5906 5905 5904 5904 5903 5903 5903 5903 5903 5903 5903 5903 5903 5903 5903 5903 5902 5902 5902 5901 5901 5902 5902 5902 5903 5904 5904 5904 5904 5905 5905 5905 5905 5904 5904 5904 5904 5903 5903
5909 5908 5908 5907 5906 5905 5904 5904 5903 5903 5902 5902 5902 5902 5902 5902 5902 5902 5902 5902 5901 5901 5901 5900 5900 5900 5901 5901 5901 5902 5903 5903 5903 5903 5903 5904 5904 5903 5903 5903 5903 5902 5902
5910 5909 5908 5907 5906 5905 5904 5904 5903 5902 5902 5901 5901 5901 5901 5901 5901 5901 5900 5900 5900 5899 5899 5899 5899 5899 5899 5900 5900 5900 5901 5901 5902 5902 5902 5902 5902 5902 5902 5902 5901 5901 5900
5911 5910 5908 5907 5906 5905 5904 5903 5902 5902 5901 5901 5900 5900 5900 5900 5899 5899 5899 5899 5899 5899 5899 5898 5898 5898 5898 5898 5898 5898 5899 5899 5900 5900 5900 5900 5900 5900 5900 5900 5899 5899 5899
5911 5910 5909 5908 5906 5905 5904 5903 5902 5901 5900 5900 5900 5900 5899 5899 5898 5898 5898 5898 5897 5897 5897 5897 5896 5896 5896 5896 5896 5896 5897 5897 5897 5898 5898 5898 5898 5898 5898 5898 5897 5897 5897
5911 5910 5909 5908 5906 5905 5904 5903 5902 5901 5900 5899 5899 5899 5898 5898 5897 5897 5896 5896 5895 5895 5894 5895 5895 5894 5894 5894 5894 5894 5894 5895 5895 5895 5896 5896 5896 5896 5896 5895 5895 5895 5895
5911 5910 5909 5907 5906 5905 5904 5903 5902 5900 5899 5899 5898 5898 5897 5896 5896 5895 5895 5894 5893 5893 5893 5893 5893 5892 5892 5892 5891 5891 5891 5892 5892 5893 5893 5893 5893 5893 5893 5893 5893 5892 5891
5911 5910 5908 5907 5906 5904 5903 5902 5901 5900 5899 5898 5897 5896 5896 5895 5894 5893 5893 5892 5891 5891 5891 5891 5891 5890 5890 5890 5889 5889 5889 5889 5889 5890 5890 5891 5890 5890 5890 5890 5890 5889 5888
5910 5909 5908 5907 5905 5904 5903 5902 5901 5899 5898 5897 5896 5895 5894 5893 5892 5891 5890 5890 5890 5889 5889 5889 5889 5888 5887 5887 5888 5887 5887 5887 5887 5887 5887 5887 5887 5887 5887 5886 5886 5885 5885
5910 5908 5907 5906 5904 5903 5902 5901 5900 5899 5897 5896 5895 5894 5893 5892 5890 5889 5888 5888 5887 5887 5887 5887 5887 5887 5886 5886 5886 5886 5885 5885 5884 5884 5883 5883 5883 5883 5883 5883 5882 5881 5881
5909 5907 5906 5904 5903 5902 5901 5900 5899 5898 5896 5895 5894 5893 5891 5890 5888 5887 5886 5885 5885 5885 5885 5885 5884 5884 5884 5884 5883 5883 5883 5882 5882 5882 5881 5880 5880 5879 5879 5879 5878 5878 5877
5907 5905 5904 5903 5901 5900 5899 5898 5897 5896 5895 5894 5892 5891 5890 5888 5887 5885 5884 5883 5883 5882 5882 5882 5882 5882 5881 5881 5881 5880 5880 5879 5878 5878 5878 5877 5876 5876 5875 5874 5874 5873 5873
5906 5904 5902 5901 5899 5898 5897 5896 5895 5894 5893 5892 5891 5889 5888 5887 5885 5883 5882 5881 5880 5880 5879 5879 5879 5878 5878 5878 5878 5877 5877 5876 5875 5874 5874 5873 5873 5872 5871 5870 5869 5869 5868